Zurück zum Katalog

TITAN 3C TRANSTAGE DEB *

LostHEO
NORAD 28663·DEBRIS·🇺🇸 United States

Gestartet Dec 21, 1965 von Cape Canaveral Space Force Station

Loading…

Nächste Überflüge (nächste 24 Stunden)

TLE

VeraltetSource: Space-Track

Epoche: Dec 7, 2025, 06:09 UTC

1 28663U 65108BV  25341.25627543 -.00000044  00000-0  00000-0 0  9993
2 28663  26.2913 183.3825 6598829 181.4114 357.7354  2.60741097209569

Verfolge TITAN 3C TRANSTAGE DEB * in Echtzeit mit AllMySat

Download on the App Store